BARATARIA BAY PASS AT GRAND ISLE LA US USGS current weather conditions

sailwx.info

Wind from 042 at 18 knots

Last reported at 2020-Jan-21 16:00 UTC.
Time now 2020-Jan-21 18:04 UTC

Location: N 29°16' W 089°57'.
View on Google Maps.

See reports from other nearby stations

  
Tides and Currents Weather Stations Pressure Air Temp Water Temp Dewpoint Dewpoint Depression Visibility Wind Speed Wind Dir Waves Ship Positions
date/time (UTC)wind fromknots sea level pressurealtimeterstation pressurevisibilityair tempwater tempwave heightnotes
2020-Jan-21 16:00 042 18
2020-Jan-21 15:00 036 21
2020-Jan-21 14:00 020 22
2020-Jan-21 13:00 036 21
2020-Jan-21 12:00 033 24
2020-Jan-21 11:00 027 25
2020-Jan-21 10:00 016 23
2020-Jan-21 09:00 023 21
2020-Jan-21 08:00 015 25
2020-Jan-21 07:00 023 25
2020-Jan-21 06:00 029 24
2020-Jan-21 05:00 042 21
2020-Jan-21 04:00 024 24
2020-Jan-21 03:00 031 25
2020-Jan-21 02:00 014 24
2020-Jan-21 01:00 012 23
2020-Jan-21 00:00 017 18
2020-Jan-20 23:00 006 18
2020-Jan-20 22:00 002 20
2020-Jan-20 21:00 012 18
2020-Jan-20 20:00 011 19
2020-Jan-20 19:00 019 21
2020-Jan-20 18:00 020 17
2020-Jan-20 17:00 026 19
2020-Jan-20 16:00 018 21
2020-Jan-20 15:00 007 25
2020-Jan-20 14:00 015 20
2020-Jan-20 13:00 018 27
2020-Jan-20 12:00 018 26
2020-Jan-20 11:00 022 24
2020-Jan-20 10:00 015 25
2020-Jan-20 09:00 018 22
2020-Jan-20 08:00 024 27
2020-Jan-20 07:00 015 31
2020-Jan-20 06:00 015 30
2020-Jan-20 05:00 022 29
2020-Jan-20 04:00 003 30
2020-Jan-20 03:00 024 28
2020-Jan-20 02:00 019 24
2020-Jan-20 01:00 013 28
2020-Jan-20 00:00 008 23
2020-Jan-19 23:00 027 23
2020-Jan-19 22:00 002 23
2020-Jan-19 21:00 024 19
2020-Jan-19 20:00 014 22
2020-Jan-19 19:00 021 25
2020-Jan-19 18:00 012 28